MUOS-4

Last updated on Wed Sep 23 2026 00:03:32 GMT+0000 (Coordinated Universal Time)

1 40887U 15044A 26265.64233683 -.00000092 00000+0 00000+0 0 9997 2 40887 4.5120 42.6655 0052655 3.6011 261.4782 1.00272363 40539
UTC large
Height (km)
Speed (km/s)
/
Latitude / Longitude
Inclination (degrees)
Orbital Period (minutes)
Azimuth
Elevation
Range (km)
Doppler Factor

Next 0 passes for location: London (51.5072 / 0.1276)

No passes found over London.
MUOS-4